Location: Boss Branch
(32.3799°N, 97.2508°W)
Time: 02:00:22
(UTC+00:00)

A-11 Canister half - Visible Passes

Search period start: 12 November 2024 00:00
Search period end: 22 November 2024 00:00
Orbit: 1525 x 1682 km, 47.3° (Epoch: 11 November)

Date Brightness Start Highest point End Pass type
(mag) Time Alt. Az. Time Alt. Az. Time Alt. Az.
12 Nov 10.2 01:40:14 10° S 01:45:42 23° SE 01:45:42 23° SE visible
12 Nov 10.8 03:42:04 10° SW 03:44:03 18° SW 03:44:03 18° SW visible
12 Nov 11.0 08:12:00 16° ENE 08:12:00 16° ENE 08:13:46 10° ENE visible
12 Nov 9.2 10:10:19 52° NNW 10:12:12 61° NNE 10:21:22 10° ESE visible
12 Nov 9.4 12:08:38 11° WNW 12:16:59 45° SW 12:25:38 10° SSE visible
13 Nov 10.1 01:18:46 10° S 01:25:44 23° SE 01:25:44 23° SE visible
13 Nov 10.4 03:20:16 10° SW 03:24:04 27° SW 03:24:04 27° SW visible
13 Nov 11.3 07:51:49 10° ENE 07:51:49 10° ENE 07:51:52 10° ENE visible
13 Nov 9.2 09:50:08 58° NNE 09:50:23 58° NNE 09:59:31 10° ESE visible
13 Nov 9.3 11:48:27 18° WNW 11:55:15 48° SW 12:04:00 10° SSE visible
14 Nov 10.1 00:57:21 10° S 01:04:23 22° SE 01:05:45 21° ESE visible
14 Nov 9.9 02:58:28 10° SW 03:04:05 39° SW 03:04:05 39° SW visible
14 Nov 9.5 09:30:00 52° ENE 09:30:00 52° ENE 09:37:40 10° ESE visible
14 Nov 9.2 11:28:19 26° WNW 11:33:31 51° SW 11:42:22 10° SSE visible
15 Nov 10.2 00:35:58 10° SSE 00:42:39 20° SE 00:45:44 17° ESE visible
15 Nov 9.4 02:36:40 10° SW 02:44:04 55° SSW 02:44:04 55° SSW visible
15 Nov 9.9 09:09:54 40° ENE 09:09:54 40° ENE 09:15:49 10° ESE visible
15 Nov 9.1 11:08:14 37° W 11:11:47 54° SW 11:20:43 10° SSE visible
16 Nov 10.4 00:14:38 10° SSE 00:20:55 19° SE 00:25:43 13° E visible
16 Nov 9.0 02:14:54 10° SW 02:24:02 70° S 02:24:02 70° S visible
16 Nov 11.1 04:21:08 10° W 04:22:22 14° W 04:22:22 14° W visible
16 Nov 10.3 08:49:50 28° E 08:49:50 28° E 08:53:57 10° ESE visible
16 Nov 9.0 10:48:10 50° W 10:50:03 58° SW 10:59:03 10° SSE visible
16 Nov 10.5 23:53:20 10° SSE 23:59:10 17° ESE 00:04:56 10° E visible
17 Nov 8.9 01:53:07 10° SW 02:03:09 70° SE 02:03:57 68° ESE visible
17 Nov 10.7 03:59:10 10° W 04:02:17 22° W 04:02:17 22° W visible
17 Nov 10.8 08:29:49 19° E 08:29:49 19° E 08:32:05 10° E visible
17 Nov 8.9 10:28:09 61° SW 10:28:18 61° SW 10:37:23 10° SSE visible
17 Nov 10.5 12:28:40 10° W 12:31:54 12° WSW 12:35:08 10° SW visible
18 Nov 9.0 01:31:23 10° SW 01:41:21 67° SE 01:43:49 52° E visible
18 Nov 10.4 03:37:13 10° W 03:42:09 31° W 03:42:09 31° W visible
18 Nov 11.2 08:09:49 11° E 08:09:49 11° E 08:10:12 10° E visible
18 Nov 9.1 10:08:08 57° S 10:08:08 57° S 10:15:42 10° SE visible
18 Nov 10.4 12:06:29 11° W 12:10:12 14° WSW 12:14:16 10° SSW visible
19 Nov 9.1 01:09:38 10° SSW 01:19:34 63° SE 01:23:39 39° ENE visible
19 Nov 10.0 03:15:17 10° W 03:21:58 40° WNW 03:21:58 40° WNW visible
19 Nov 9.6 09:48:09 43° SSE 09:48:09 43° SSE 09:53:59 10° SE visible
19 Nov 10.3 11:46:29 14° WSW 11:48:30 15° WSW 11:53:12 10° SSW visible
20 Nov 9.2 00:47:53 10° SSW 00:57:47 60° SE 01:03:25 28° ENE visible
20 Nov 9.6 02:53:21 10° WSW 03:01:44 50° NW 03:01:44 50° NW visible
20 Nov 10.1 09:28:09 31° SSE 09:28:09 31° SSE 09:32:17 10° SE visible
20 Nov 10.3 11:26:29 16° WSW 11:26:48 16° WSW 11:32:03 10° SSW visible
21 Nov 9.3 00:26:11 10° SSW 00:36:00 57° SE 00:43:08 20° ENE visible
21 Nov 9.4 02:31:25 10° WSW 02:41:15 55° NNW 02:41:26 55° NNW visible
21 Nov 11.3 04:39:35 10° WNW 04:39:45 10° WNW 04:39:45 10° WNW visible
21 Nov 10.6 09:08:08 21° SE 09:08:08 21° SE 09:10:34 10° SE visible
21 Nov 10.3 11:06:29 17° SW 11:06:29 17° SW 11:10:49 10° SSW visible
